Regional Weather Roundup
Issued by NWS

Home | Current Version | Previous Version | Graphics & Text | Print | Product List | Glossary On
Versions: 1 2 3 4 5 6 7 8 9 10 11 12 13 14 15 16 17 18 19 20 21 22 23 24 25 26 27
000
ASUS45 KCYS 240910
RWRWY

WYOMING REGIONAL WEATHER ROUNDUP
NATIONAL WEATHER SERVICE CHEYENNE WY
300 AM MDT WED MAY 24 2017

NOTE:  "FAIR" INDICATES FEW OR NO CLOUDS BELOW 12,000 FEET
WITH NO SIGNIFICANT WEATHER AND/OR OBSTRUCTIONS TO VISIBILITY.

WYZ001-241000-
YELLOWSTONE NATIONAL PARK

CITY           SKY/WX    TMP DP  RH WIND       PRES   REMARKS
LK YELLOWSTONE   N/A     31  31 100 CALM      30.03F
W YELLOWSTONE  NOT AVBL

$$
WYZ002>013-054>058-071-098>099-241000-
NORTHERN WYOMING

CITY           SKY/WX    TMP DP  RH WIND       PRES   REMARKS
JACKSON        FAIR      36  34  93 N7        29.98F WCI  30
CODY           FAIR      65  35  33 VRB6      29.79F
GREYBULL       FAIR      50  34  54 SE3       29.77F
WORLAND        FAIR      50  36  58 MISG      29.78F
SHERIDAN       FAIR      42  37  82 N3        29.72F
BUFFALO        FAIR      53  32  44 CALM      29.77F
GILLETTE       FAIR      47  37  68 S17       29.77F
HULETT         FAIR      46  34  61 SW7       29.81F
NEWCASTLE      FAIR      45  32  61 E12G21    29.88F

$$
WYZ014>020-022>026-101>103-241000-
CENTRAL WYOMING

CITY           SKY/WX    TMP DP  RH WIND       PRES   REMARKS
BIG PINEY      FAIR      36  31  82 E3        30.03F
PINEDALE       FAIR      34  30  86 W5        30.05F WCI  30
DUBOIS         FAIR      45  28  53 MISG      29.96F
LANDER         FAIR      45  35  68 CALM      29.87F
RIVERTON       FAIR      47  35  63 SW6       29.87F
CASPER         FAIR      44  34  67 SW10      29.86F
DOUGLAS        FAIR      40  35  83 SE9       29.87F WCI  34

$$
WYZ021-027>030-104>119-241000-
SOUTHERN WYOMING

CITY           SKY/WX    TMP DP  RH WIND       PRES   REMARKS
EVANSTON       FAIR      48  30  49 SW6       30.07F
KEMMERER         N/A     46  34  61 W5        30.07F
FORT BRIDGER   FAIR      55  27  34 SW13      30.08F
ROCK SPRINGS   FAIR      52  34  50 W20       30.02F
DIXON            N/A     39  32  76 CALM      30.08F
RAWLINS        FAIR      49  33  54 W12       29.99F
LARAMIE        FAIR      35  30  82 SW10      29.99F WCI  27
CHEYENNE       FAIR      38  32  79 SW12      29.96F WCI  30
TORRINGTON     FAIR      37  35  92 E8        29.89F WCI  31
PINE BLUFFS    FAIR      32  32 100 MISG      29.96F

$$




USA.gov is the U.S. government's official web portal to all federal, state and local government web resources and services.